• In Lithuania
  • List of Countries
  • For 7 days
  • Water Temperature
  • Satellite Maps
  • Weather Map
  • Weather Widgets
  • user-avatar
    Login

    Hourly Weather Satif

    Today, 21 October, Sunday

    Time Temperature Precipitation Wind Pressure Humidity
    00:00 +18°C° 0 mm 1 mps 675 mmHg 70%
    01:00 +16°C° 0 mm 1 mps 675 mmHg 71%
    02:00 +16°C° 0 mm 1 mps 675 mmHg 72%
    03:00 +15°C° 0 mm 1 mps 674 mmHg 72%
    04:00 +15°C° 0 mm 1 mps 674 mmHg 73%
    05:00 +15°C° 0 mm 1 mps 674 mmHg 74%
    06:00 +14°C° 0 mm 1 mps 674 mmHg 75%
    07:00 +16°C° 0 mm 1 mps 675 mmHg 67%
    08:00 +19°C° 0 mm 1 mps 675 mmHg 59%
    09:00 +21°C° 0 mm 1 mps 676 mmHg 51%
    10:00 +21°C° 0 mm 1 mps 676 mmHg 47%
    11:00 +21°C° 0 mm 2 mps 676 mmHg 43%
    12:00 +23°C° 0 mm 2 mps 676 mmHg 39%
    13:00 +23°C° 0 mm 2 mps 675 mmHg 40%
    14:00 +23°C° 0 mm 2 mps 675 mmHg 40%
    15:00 +23°C° 0 mm 2 mps 675 mmHg 40%
    16:00 +21°C° 0 mm 2 mps 674 mmHg 47%
    17:00 +21°C° 0 mm 1 mps 674 mmHg 54%
    18:00 +20°C° 0 mm 1 mps 674 mmHg 60%
    19:00 +19°C° 0 mm 1 mps 674 mmHg 63%
    20:00 +19°C° 0 mm 1 mps 674 mmHg 67%
    21:00 +16°C° 0 mm 0 mps 674 mmHg 70%
    22:00 +16°C° 0 mm 0 mps 674 mmHg 70%
    23:00 +16°C° 0 mm 0 mps 674 mmHg 71%

    Tomorrow, 22 October, Monday

    Time Temperature Precipitation Wind Pressure Humidity
    00:00 +15°C° 0 mm 0 mps 673 mmHg 71%
    01:00 +15°C° 0 mm 0 mps 673 mmHg 71%
    02:00 +16°C° 0 mm 1 mps 673 mmHg 71%
    03:00 +15°C° 0 mm 1 mps 673 mmHg 71%
    04:00 +15°C° 0 mm 1 mps 673 mmHg 74%
    05:00 +14°C° 0 mm 1 mps 673 mmHg 76%
    06:00 +14°C° 0 mm 1 mps 673 mmHg 78%
    07:00 +15°C° 0 mm 1 mps 673 mmHg 72%
    08:00 +18°C° 0 mm 1 mps 674 mmHg 65%
    09:00 +18°C° 0 mm 2 mps 674 mmHg 59%
    10:00 +19°C° 0 mm 2 mps 674 mmHg 54%
    11:00 +20°C° 0 mm 3 mps 674 mmHg 49%
    12:00 +21°C° 0 mm 3 mps 674 mmHg 43%
    13:00 +21°C° 0 mm 4 mps 674 mmHg 43%
    14:00 +20°C° 0 mm 5 mps 674 mmHg 43%
    15:00 +20°C° 0 mm 5 mps 674 mmHg 43%
    16:00 +19°C° 0 mm 5 mps 674 mmHg 49%
    17:00 +18°C° 0 mm 4 mps 674 mmHg 55%
    18:00 +16°C° 0 mm 3 mps 674 mmHg 62%
    19:00 +15°C° 0 mm 4 mps 674 mmHg 66%
    20:00 +14°C° 0 mm 4 mps 674 mmHg 71%
    21:00 +13°C° 0 mm 4 mps 674 mmHg 76%
    22:00 +13°C° 0.1 mm 4 mps 675 mmHg 76%
    23:00 +13°C° 0.1 mm 4 mps 675 mmHg 77%

    Day after tomorrow, 23 October, Tuesday

    Time Temperature Precipitation Wind Pressure Humidity
    00:00 +13°C° 0.1 mm 4 mps 675 mmHg 78%
    01:00 +12°C° 0 mm 3 mps 674 mmHg 79%
    02:00 +12°C° 0 mm 3 mps 674 mmHg 81%
    03:00 +11°C° 0 mm 3 mps 674 mmHg 82%
    04:00 +12°C° 0 mm 2 mps 674 mmHg 83%
    05:00 +10°C° 0 mm 2 mps 674 mmHg 84%
    06:00 +10°C° 0 mm 2 mps 675 mmHg 85%
    07:00 +12°C° 0 mm 2 mps 675 mmHg 79%
    08:00 +12°C° 0 mm 3 mps 675 mmHg 72%
    09:00 +13°C° 0 mm 3 mps 676 mmHg 66%
    10:00 +14°C° 0 mm 3 mps 676 mmHg 62%
    11:00 +14°C° 0 mm 4 mps 676 mmHg 59%
    12:00 +15°C° 0 mm 4 mps 676 mmHg 56%
    13:00 +15°C° 0 mm 4 mps 676 mmHg 57%
    14:00 +15°C° 0 mm 4 mps 676 mmHg 58%
    15:00 +15°C° 0 mm 4 mps 675 mmHg 60%
    16:00 +14°C° 0 mm 4 mps 675 mmHg 64%
    17:00 +13°C° 0 mm 3 mps 675 mmHg 69%
    18:00 +13°C° 0 mm 3 mps 675 mmHg 73%
    19:00 +12°C° 0 mm 3 mps 675 mmHg 75%
    20:00 +13°C° 0 mm 2 mps 676 mmHg 78%
    21:00 +13°C° 0 mm 2 mps 676 mmHg 80%
    22:00 +12°C° 0 mm 2 mps 676 mmHg 80%
    23:00 +12°C° 0 mm 2 mps 675 mmHg 80%

    24 October, Wednesday

    Time Temperature Precipitation Wind Pressure Humidity
    00:00 +12°C° 0 mm 2 mps 675 mmHg 80%
    01:00 +12°C° 0 mm 2 mps 675 mmHg 81%
    02:00 +10°C° 0 mm 2 mps 675 mmHg 82%
    03:00 +10°C° 0 mm 2 mps 674 mmHg 84%
    04:00 +9°C° 0 mm 2 mps 674 mmHg 85%
    05:00 +9°C° 0 mm 2 mps 674 mmHg 87%
    06:00 +9°C° 0 mm 2 mps 674 mmHg 88%
    07:00 +10°C° 0 mm 2 mps 675 mmHg 84%
    08:00 +12°C° 0 mm 2 mps 675 mmHg 79%
    09:00 +13°C° 0 mm 2 mps 676 mmHg 74%
    10:00 +13°C° 0 mm 2 mps 676 mmHg 72%
    11:00 +14°C° 0 mm 2 mps 676 mmHg 70%
    12:00 +14°C° 0 mm 3 mps 676 mmHg 67%
    13:00 +14°C° 0 mm 3 mps 675 mmHg 67%
    14:00 +14°C° 0 mm 3 mps 675 mmHg 66%
    15:00 +14°C° 0 mm 3 mps 675 mmHg 65%
    16:00 +13°C° 0 mm 3 mps 675 mmHg 68%
    17:00 +14°C° 0 mm 2 mps 675 mmHg 71%
    18:00 +13°C° 0 mm 2 mps 675 mmHg 73%
    19:00 +13°C° 0 mm 2 mps 675 mmHg 77%
    20:00 +12°C° 0 mm 1 mps 675 mmHg 80%
    21:00 +12°C° 0 mm 1 mps 675 mmHg 84%
    22:00 +11°C° 0 mm 1 mps 675 mmHg 85%
    23:00 +11°C° 0 mm 1 mps 675 mmHg 87%

    25 October, Thursday

    Time Temperature Precipitation Wind Pressure Humidity
    00:00 +11°C° 0 mm 1 mps 674 mmHg 88%
    01:00 +10°C° 0 mm 1 mps 674 mmHg 88%
    02:00 +9°C° 0 mm 0 mps 674 mmHg 88%
    03:00 +9°C° 0 mm 0 mps 674 mmHg 88%
    04:00 +9°C° 0 mm 0 mps 674 mmHg 87%
    05:00 +8°C° 0 mm 0 mps 674 mmHg 87%
    06:00 +8°C° 0 mm 0 mps 674 mmHg 86%
    07:00 +11°C° 0 mm 1 mps 674 mmHg 77%
    08:00 +13°C° 0 mm 1 mps 675 mmHg 67%
    09:00 +14°C° 0 mm 1 mps 676 mmHg 58%
    10:00 +15°C° 0 mm 1 mps 676 mmHg 52%
    11:00 +16°C° 0 mm 1 mps 676 mmHg 47%
    12:00 +19°C° 0 mm 1 mps 676 mmHg 42%
    13:00 +19°C° 0 mm 1 mps 676 mmHg 41%
    14:00 +19°C° 0 mm 1 mps 675 mmHg 41%
    15:00 +18°C° 0 mm 2 mps 675 mmHg 40%
    16:00 +17°C° 0 mm 2 mps 675 mmHg 44%
    17:00 +16°C° 0 mm 2 mps 675 mmHg 49%
    18:00 +16°C° 0 mm 2 mps 675 mmHg 54%
    19:00 +15°C° 0 mm 2 mps 675 mmHg 55%
    20:00 +15°C° 0 mm 2 mps 675 mmHg 56%
    21:00 +14°C° 0 mm 2 mps 675 mmHg 57%
    22:00 +14°C° 0 mm 2 mps 674 mmHg 58%
    23:00 +14°C° 0 mm 2 mps 674 mmHg 58%

    26 October, Friday

    Time Temperature Precipitation Wind Pressure Humidity
    00:00 +12°C° 0 mm 3 mps 674 mmHg 59%
    01:00 +12°C° 0 mm 3 mps 674 mmHg 60%
    02:00 +11°C° 0 mm 3 mps 673 mmHg 60%
    03:00 +11°C° 0 mm 3 mps 673 mmHg 60%
    04:00 +11°C° 0 mm 3 mps 673 mmHg 61%
    05:00 +11°C° 0 mm 3 mps 673 mmHg 61%
    06:00 +10°C° 0 mm 3 mps 673 mmHg 62%
    07:00 +12°C° 0 mm 3 mps 673 mmHg 56%
    08:00 +14°C° 0 mm 4 mps 674 mmHg 51%
    09:00 +15°C° 0 mm 5 mps 674 mmHg 45%
    10:00 +16°C° 0 mm 5 mps 674 mmHg 42%
    11:00 +17°C° 0 mm 5 mps 674 mmHg 39%
    12:00 +19°C° 0 mm 5 mps 673 mmHg 35%
    13:00 +19°C° 0 mm 5 mps 673 mmHg 36%
    14:00 +19°C° 0 mm 5 mps 673 mmHg 36%
    15:00 +19°C° 0 mm 5 mps 672 mmHg 36%
    16:00 +17°C° 0 mm 5 mps 672 mmHg 40%
    17:00 +17°C° 0 mm 4 mps 672 mmHg 45%
    18:00 +14°C° 0 mm 4 mps 671 mmHg 49%
    19:00 +14°C° 0 mm 4 mps 671 mmHg 51%
    20:00 +13°C° 0 mm 4 mps 671 mmHg 53%
    21:00 +13°C° 0 mm 4 mps 671 mmHg 55%
    22:00 +13°C° 0 mm 4 mps 671 mmHg 55%
    23:00 +13°C° 0 mm 4 mps 671 mmHg 55%
    Show more